Flag for Turkey Weather past 2 weeks in Mersin, Turkey

Now
84 °F

Scattered clouds.


Feels Like: 87 °F
Forecast: 70 / 88 °F
Wind: 7 mph from Southwest

Location: Adana / Sakirpasa

Current Time: Jul 7, 2015 at 12:06:07 PM

Latest Report: Jul 7, 2015 at 11:20 AM


Visibility: N/A

Pressure: 29.77 "Hg

Humidity: 58%

Dew point: 68 °F

Location of MersinLocation

Historic Weather in Mersin — Graph

°F

Mersin temperature yesterday

Maximum temperature yesterday: 90 °F (at 1:50 PM)
Minimum temperature yesterday: 75 °F (at 12:50 AM)
Average temperature yesterday: 81 °F

Past Weeks' High & Low Weather Summary

 TemperatureHumidityPressure
High90 °F (Jun 26, 2:50 PM)94% (Jun 23, 5:50 AM)29.95 "Hg (Jun 23, 5:50 AM)
Low68 °F (Jun 23, 5:50 AM)38% (Jun 26, 2:50 PM)29.59 "Hg (Jun 26, 3:50 PM)
Average79 °F70%29.78 "Hg
* Reported Jun 22 10:20 AM — Jul 7 10:50 AM, Mersin, Weather by CustomWeather, © 2015

Note: Actual official high and low records may vary slightly from our data, if they occured in-between our weather recording intervals... More about our weather records

Advertising

Mersin weather history for previous 24 hours

 ConditionsComfort  
Time TempWeatherWind HumidityBarometerVisibility
10:50 AM
Tue, Jul 7
84 °FScattered clouds.7 mph55%29.77 "HgN/A
10:20 AM84 °FScattered clouds.5 mph58%29.77 "HgN/A
9:50 AM82 °FScattered clouds.5 mph58%29.77 "HgN/A
9:20 AM79 °FScattered clouds.5 mph74%29.80 "HgN/A
8:50 AM81 °FScattered clouds.5 mph70%29.80 "HgN/A
8:20 AM79 °FScattered clouds.5 mph79%29.80 "HgN/A
7:50 AM77 °FScattered clouds.3 mph83%29.80 "HgN/A
7:20 AM75 °FFog.1 mph89%29.77 "Hg3 mi
6:50 AM75 °FFog.No wind89%29.77 "Hg3 mi
6:20 AM73 °FFog.No wind89%29.77 "Hg3 mi
5:50 AM73 °FFog.No wind89%29.77 "Hg3 mi
5:20 AM72 °FPassing clouds.No wind94%29.77 "Hg4 mi
4:50 AM72 °FPassing clouds.No wind94%29.77 "HgN/A
4:20 AM72 °FPassing clouds.2 mph94%29.77 "HgN/A
3:50 AM72 °FPassing clouds.2 mph94%29.77 "HgN/A
3:20 AM73 °FPassing clouds.No wind89%29.77 "HgN/A
2:50 AM73 °FPassing clouds.No wind89%29.77 "HgN/A
2:20 AM73 °FPassing clouds.No wind89%29.77 "HgN/A
1:50 AM73 °FPassing clouds.2 mph89%29.77 "HgN/A
1:20 AM73 °FPassing clouds.No wind89%29.77 "HgN/A
12:50 AM75 °FPassing clouds.No wind89%29.77 "HgN/A
12:20 AM73 °FPassing clouds.1 mph89%29.80 "HgN/A
11:50 PM
Mon, Jul 6
75 °FPassing clouds.2 mph83%29.80 "HgN/A
11:20 PM75 °FPassing clouds.2 mph89%29.80 "HgN/A
10:50 PM77 °FPassing clouds.3 mph83%29.80 "HgN/A
10:20 PM77 °FPassing clouds.3 mph83%29.80 "HgN/A
9:50 PM77 °FPassing clouds.2 mph83%29.80 "HgN/A
9:20 PM77 °FPassing clouds.5 mph83%29.77 "HgN/A
8:50 PM79 °FScattered clouds.7 mph84%29.77 "HgN/A
8:20 PM79 °FScattered clouds.7 mph84%29.77 "HgN/A
7:50 PM81 °FScattered clouds.7 mph79%29.77 "HgN/A
7:20 PM82 °FScattered clouds.7 mph70%29.74 "HgN/A
6:50 PM84 °FScattered clouds.8 mph66%29.74 "HgN/A
6:20 PM86 °FScattered clouds.9 mph59%29.74 "HgN/A
5:50 PM86 °FScattered clouds.12 mph62%29.74 "HgN/A
5:20 PM88 °FScattered clouds.10 mph55%29.74 "HgN/A
4:50 PM88 °FScattered clouds.12 mph59%29.74 "HgN/A
4:20 PM86 °FScattered clouds.9 mph62%29.74 "HgN/A
3:50 PM88 °FScattered clouds.9 mph59%29.74 "HgN/A
3:20 PM88 °FScattered clouds.9 mph59%29.74 "HgN/A
2:50 PM90 °FScattered clouds.9 mph52%29.77 "HgN/A
2:20 PM90 °FScattered clouds.8 mph55%29.77 "HgN/A
1:50 PM90 °FScattered clouds.9 mph52%29.77 "HgN/A
1:20 PM88 °FScattered clouds.8 mph55%29.77 "HgN/A
12:50 PM88 °FScattered clouds.7 mph55%29.77 "HgN/A
12:20 PM88 °FScattered clouds.8 mph59%29.80 "HgN/A
Weather by CustomWeather, © 2015

See weather overviewHow to use our weather pages